Regional Weather Roundup
Issued by NWS

Home | Current Version | Previous Version | Graphics & Text | Print | Product List | Glossary On
Versions: 1 2 3 4 5 6 7 8 9 10 11 12 13 14 15 16 17 18 19 20 21 22 23 24 25 26 27 28 29 30 31 32 33 34 35 36 37 38 39 40 41 42 43 44 45 46 47 48 49 50
098
ASUS45 KTFX 110010
RWRMT
MONTANA REGIONAL WEATHER ROUNDUP
NATIONAL WEATHER SERVICE GREAT FALLS MT
500 PM MST SAT DEC 10 2016

NOTE: "FAIR" INDICATES FEW OR NO CLOUDS BELOW 12000 FEET WITH NO
SIGNIFICANT WEATHER AND/OR OBSTRUCTIONS TO VISIBILITY.

MTZ001>007-043-110100-
WEST OF THE DIVIDE

CITY           SKY/WX    TMP DP  RH WIND       PRES   REMARKS
KALISPELL      CLOUDY    15   9  76 CALM      29.87R
MISSOULA       FLURRIES  23  19  85 W3        29.85R
BUTTE          CLOUDY    26  11  52 W8        29.73R WCI  18
MULLAN PASS    CLOUDY    16  14  92 VRB5      29.72S FOG
ANACONDA         N/A     27  14  59 NW6       29.75R WCI  20
DEER LODGE       N/A     28  16  59 N5G17     29.79R
EUREKA           N/A     10   1  67 CALM      29.91R
HAMILTON         N/A     21  16  79 E7        29.80S WCI  13
LIBBY            N/A     12  10  92 CALM      29.89R
RONAN            N/A     13   7  77 CALM      29.89S
$$

MTZ008-052>055-110100-
SOUTHWEST MONTANA

CITY           SKY/WX    TMP DP  RH WIND       PRES   REMARKS
BOZEMAN        CLOUDY    20  17  88 N5        29.75R FOG
DILLON         CLOUDY    26  15  63 S12       29.74R WCI  16
W YELLOWSTONE  CLOUDY    28  25  86 SW9G23    29.70R WCI  20
ENNIS          PTCLDY    30  21  69 VRB5      29.78R
THREE FORKS      N/A     19 -13  23 CALM      29.77R
TWIN BRIDGES     N/A     31  15  51 SW3       29.77R
$$

MTZ009-010-012-014-046-048-049-054-110100-
EAST SLOPES AND CENTRAL MONTANA

CITY           SKY/WX    TMP DP  RH WIND       PRES   REMARKS
CUT BANK       CLEAR     -6  -9  86 NW9       29.75R WCI -23
GREAT FALLS    CLOUDY     2  -2  83 S3        29.74R
MALMSTROM AFB  CLOUDY     2  -1  86 S8        29.76R WCI -12
HELENA         CLEAR     20  11  68 W5        29.75R
CHOTEAU          N/A      5   1  85 MISG      29.74R
$$

MTZ011-013-016-021-045-047-050-051-110100-
NORTH CENTRAL MONTANA

CITY           SKY/WX    TMP DP  RH WIND       PRES   REMARKS
HAVRE          LGT SNOW   5   0  79 NW5       29.84R
LEWISTOWN      CLOUDY     1  -2  87 SW5       29.70R
N BAR RANCH      N/A      9   5  85 VRB6      29.66R WCI  -1
CHINOOK          N/A      5   0  78 CALM      29.85R
FORT BENTON      N/A      3  -2  78 CALM      29.83R
$$

MTZ017>020-022>027-061-062-110100-
NORTHEAST MONTANA

CITY           SKY/WX    TMP DP  RH WIND       PRES   REMARKS
GLASGOW        LGT SNOW   2  -3  80 E15       29.84R WCI -17
SIDNEY         LGT SNOW   2  -4  76 SE13      29.93S WCI -15
WOLF POINT     LGT SNOW   5  -1  76 E14       29.87F VSB 3/4 WCI -12
PLENTYWOOD       N/A      0  -4  85 E21       29.90F WCI -23
POPLAR           N/A      1  -2  85 E12       29.91  WCI -15
$$

MTZ028>42-056>058-110100-
SOUTHCENTRAL AND SOUTHEAST MONTANA

CITY           SKY/WX    TMP DP  RH WIND       PRES   REMARKS
BAKER          CLOUDY     2  -4  76 SE22      29.78R WCI -20
BILLINGS       CLOUDY    14  12  92 S8        29.68R WCI   3
LIVINGSTON     CLOUDY    32  23  69 NW6       29.70R WCI  26
MILES CITY     LGT SNOW  11   4  73 CALM      29.79R
BIG TIMBER     CLOUDY    32  23  69 W21       29.69R WCI  20
FORSYTH          N/A     10   9  92 E6        29.74F WCI   1
LAUREL           N/A     19   6  57 SW10      29.70R WCI   7
$$

REGIONAL REPORTS...DAKOTAS

CITY           SKY/WX    TMP DP  RH WIND       PRES   REMARKS
WILLISTON      FLURRIES   3  -5  69 SE10      29.96F WCI -12
MINOT          CLOUDY    -6 -11  79 E14       30.08F WCI -26
DICKINSON      CLOUDY    -5  -9  83 E17       29.87R WCI -27
BEACH          LGT SNOW   1  -2  85 SE22      29.83F WCI -21
CROSBY         CLOUDY    -4  -8  84 E18       30.02F WCI -26
TIOGA          MOCLDY    -2  -4  92 SE18      29.97F FOG     WCI -24
WATFORD CITY   CLOUDY     0  -6  78 E16       29.94F WCI -21
BISMARCK       CLOUDY    -3  -7  82 E10       30.05F WCI -20
GRAND FORKS    CLOUDY    -4  -9  79 E6        30.28F WCI -16
FARGO          CLOUDY     2  -6  69 E9        30.23F WCI -13
BUFFALO SD       N/A      2  -4  76 E13       29.71S WCI -15
RAPID CITY     CLOUDY     5   1  83 SE9       29.74F WCI  -9
$$

REGIONAL REPORTS...WYOMING/IDAHO/WASHINGTON

CITY           SKY/WX    TMP DP  RH WIND       PRES   REMARKS
GILLETTE       CLOUDY    18  15  88 SE3       29.55F
SHERIDAN       LGT SNOW  20  16  84 NW13      29.67R FOG     WCI   7
BUFFALO WY     CLOUDY    23  16  74 N18G25    29.56R WCI   9
CODY           CLOUDY    23  20  88 CALM      29.67R
YELLOWSTONE LA   N/A     26  22  84 VRB7      29.69R WCI  18
IDAHO FALLS    CLOUDY    35  33  92 SW21      29.76S WCI  24
SALMON         CLOUDY    18  18 100 CALM      29.82R
BOISE          FOG       32  32 100 CALM      29.88S VSB<1/4
SPOKANE        CLOUDY    20  18  92 E5        29.92R
$$

REGIONAL REPORTS...ALBERTA

CITY           SKY/WX    TMP DP  RH WIND       PRES   REMARKS
EDMONTON       CLOUDY    -6 -13  71 N5        29.96S
CALGARY        CRYSTALS  -6 -11  77 E5        29.78R
LETHBRIDGE     MOCLDY    -2  -6  84 NW3       29.83R
MEDICINE HAT   LGT SNOW   3   0  85 NW7       29.88R VSB 3/4 WCI  -9
WATERTON GATE    N/A     -8 -13  77 NE9         N/A  WCI -25
CARDSTON         N/A     -6 -11  77 W1          N/A
MILK RIVER       N/A     -8 -11  84 NW8         N/A  WCI -23
ONEFOUR          N/A      3   0  85 NW2         N/A
$$

REGIONAL REPORTS...SASKATCHEWAN

CITY           SKY/WX    TMP DP  RH WIND       PRES   REMARKS
SWIFT CURRENT  CLOUDY     1  -2  85 E15       29.85R WCI -18
REGINA         PTCLDY    -8 -15  71 E13G18    30.04S WCI -28
SASKATOON      PTCLDY    -2  -8  78 SE9       30.08R WCI -18
CYPRESS HILLS    N/A      1  -4  78 NE2         N/A
VAL MARIE        N/A      1  -2  85 SE5         N/A
ROCKGLEN         N/A     -2  -4  92 E12         N/A  WCI -20
$$




USA.gov is the U.S. government's official web portal to all federal, state and local government web resources and services.